N79KW KMTH-KISM

Flight info

Callsign N79KW
Flight time 0h 48m
Altitude 20000
Route FERAL JOKRS4
Aircraft E35L/M-VGDW/C

Departure

Time 2026-05-04 07:01
Airport Florida Keys Marathon International Airport (KMTH)

Arrival

Time 2026-05-04 07:50
Airport Kissimmee Gateway Airport (KISM)
Time Latitude Longitude Altitude Speed Heading
2026-05-04 06:48 24.72661 -81.04717 10 ft 0 kts 248°
2026-05-04 06:57 24.72465 -81.05386 10 ft 18 kts 244°
2026-05-04 06:58 24.72418 -81.05508 10 ft 16 kts 248°
2026-05-04 06:58 24.72376 -81.05618 10 ft 14 kts 250°
2026-05-04 06:58 24.72339 -81.05715 10 ft 12 kts 245°
2026-05-04 06:58 24.72316 -81.05796 10 ft 4 kts 291°
2026-05-04 06:59 24.72316 -81.05797 10 ft 0 kts 291°
2026-05-04 06:59 24.72317 -81.05798 10 ft 0 kts 293°
2026-05-04 06:59 24.72324 -81.05808 10 ft 7 kts 320°
2026-05-04 07:01 24.76893 -81.01379 4229 ft 240 kts 332°
2026-05-04 07:01 24.78327 -81.02471 5109 ft 263 kts 326°
2026-05-04 07:02 24.80045 -81.03347 6125 ft 283 kts 334°
2026-05-04 07:02 24.81832 -81.04134 7809 ft 273 kts 335°
2026-05-04 07:02 24.83561 -81.04875 9103 ft 276 kts 334°
2026-05-04 07:02 24.85403 -81.05660 10101 ft 290 kts 334°
2026-05-04 07:03 24.87323 -81.06476 11123 ft 302 kts 334°
2026-05-04 07:03 24.89298 -81.07313 12151 ft 311 kts 334°
2026-05-04 07:03 24.91360 -81.08189 13188 ft 320 kts 333°
2026-05-04 07:03 24.93463 -81.09082 14086 ft 332 kts 333°
2026-05-04 07:04 24.95634 -81.10005 15111 ft 337 kts 333°
2026-05-04 07:04 24.97829 -81.10937 16259 ft 337 kts 332°
2026-05-04 07:04 25.00013 -81.11867 17294 ft 340 kts 332°
2026-05-04 07:04 25.02227 -81.12808 18299 ft 343 kts 332°
2026-05-04 07:05 25.04442 -81.13751 19272 ft 346 kts 332°
2026-05-04 07:05 25.06736 -81.14730 19940 ft 359 kts 332°
2026-05-04 07:05 25.09158 -81.15763 19996 ft 388 kts 332°
2026-05-04 07:05 25.11828 -81.16900 19993 ft 416 kts 333°
2026-05-04 07:06 25.17538 -81.19334 19998 ft 458 kts 333°
2026-05-04 07:06 25.20591 -81.20635 19990 ft 470 kts 333°
2026-05-04 07:06 25.23589 -81.21912 19981 ft 456 kts 333°
2026-05-04 07:07 25.26515 -81.23160 19984 ft 434 kts 333°
2026-05-04 07:08 25.43855 -81.30582 19980 ft 343 kts 331°
2026-05-04 07:09 25.46060 -81.31527 19981 ft 337 kts 330°
2026-05-04 07:09 25.48217 -81.32453 19976 ft 331 kts 331°
2026-05-04 07:09 25.50362 -81.33373 19980 ft 326 kts 331°
2026-05-04 07:09 25.52476 -81.34280 19978 ft 321 kts 330°
2026-05-04 07:10 25.54564 -81.35178 19981 ft 317 kts 331°
2026-05-04 07:10 25.56638 -81.36070 19978 ft 319 kts 330°
2026-05-04 07:12 25.72764 -81.43012 19991 ft 392 kts 332°
2026-05-04 07:12 25.75346 -81.44124 19987 ft 397 kts 332°
2026-05-04 07:12 25.77936 -81.45238 19984 ft 395 kts 332°
2026-05-04 07:12 25.80509 -81.46346 19974 ft 391 kts 332°
2026-05-04 07:13 25.83033 -81.47435 19986 ft 388 kts 331°
2026-05-04 07:13 25.85579 -81.48534 19986 ft 385 kts 332°
2026-05-04 07:13 25.88075 -81.49612 19986 ft 383 kts 331°
2026-05-04 07:14 25.97983 -81.53913 19996 ft 375 kts 331°
2026-05-04 07:14 26.00429 -81.54980 19998 ft 374 kts 331°
2026-05-04 07:15 26.02880 -81.56043 19994 ft 373 kts 331°
2026-05-04 07:15 26.05317 -81.57099 19999 ft 372 kts 331°
2026-05-04 07:15 26.07770 -81.58161 19996 ft 371 kts 331°
2026-05-04 07:15 26.10219 -81.59222 20000 ft 371 kts 331°
2026-05-04 07:16 26.12654 -81.60278 20003 ft 370 kts 331°
2026-05-04 07:16 26.15082 -81.61330 19997 ft 370 kts 331°
2026-05-04 07:16 26.17498 -81.62379 20001 ft 369 kts 331°
2026-05-04 07:16 26.19924 -81.63432 19998 ft 369 kts 331°
2026-05-04 07:17 26.22326 -81.64475 20000 ft 368 kts 330°
2026-05-04 07:17 26.24716 -81.65513 20004 ft 368 kts 330°
2026-05-04 07:17 26.27134 -81.66563 20010 ft 368 kts 330°
2026-05-04 07:17 26.29575 -81.67625 20012 ft 369 kts 330°
2026-05-04 07:18 26.31996 -81.68678 20018 ft 369 kts 330°
2026-05-04 07:18 26.34417 -81.69732 20011 ft 369 kts 330°
2026-05-04 07:18 26.36800 -81.70770 20014 ft 369 kts 330°
2026-05-04 07:18 26.39234 -81.71830 20020 ft 369 kts 330°
2026-05-04 07:19 26.41662 -81.72889 20013 ft 369 kts 330°
2026-05-04 07:19 26.44068 -81.73938 20027 ft 369 kts 330°
2026-05-04 07:19 26.46487 -81.74994 20023 ft 369 kts 330°
2026-05-04 07:19 26.48911 -81.76051 20032 ft 369 kts 330°
2026-05-04 07:20 26.51383 -81.76943 20020 ft 380 kts 342°
2026-05-04 07:20 26.54104 -81.76988 20036 ft 391 kts 355°
2026-05-04 07:20 26.56850 -81.76829 20038 ft 391 kts 354°
2026-05-04 07:20 26.59589 -81.76683 20033 ft 392 kts 354°
2026-05-04 07:22 26.78877 -81.75686 20039 ft 395 kts 355°
2026-05-04 07:22 26.81662 -81.75542 20037 ft 396 kts 354°
2026-05-04 07:23 26.84472 -81.75396 20028 ft 396 kts 354°
2026-05-04 07:23 26.87229 -81.75253 20030 ft 396 kts 354°
2026-05-04 07:23 26.90021 -81.75108 20036 ft 397 kts 354°
2026-05-04 07:23 26.92818 -81.74964 20037 ft 398 kts 355°
2026-05-04 07:24 26.95612 -81.74819 20028 ft 398 kts 355°
2026-05-04 07:24 26.98407 -81.74674 20032 ft 398 kts 354°
2026-05-04 07:24 27.01191 -81.74529 20037 ft 399 kts 354°
2026-05-04 07:24 27.03974 -81.74365 20034 ft 400 kts 355°
2026-05-04 07:25 27.06778 -81.74184 20040 ft 400 kts 355°
2026-05-04 07:26 27.26451 -81.72944 20033 ft 397 kts 351°
2026-05-04 07:27 27.29129 -81.73480 20042 ft 381 kts 335°
2026-05-04 07:27 27.31676 -81.74336 20040 ft 381 kts 335°
2026-05-04 07:27 27.34252 -81.75198 20042 ft 381 kts 335°
2026-05-04 07:27 27.36839 -81.76067 20039 ft 381 kts 335°
2026-05-04 07:28 27.39446 -81.76942 20038 ft 381 kts 335°
2026-05-04 07:28 27.42020 -81.77807 20038 ft 381 kts 335°
2026-05-04 07:28 27.44578 -81.78667 20037 ft 381 kts 335°
2026-05-04 07:28 27.47145 -81.79530 20044 ft 381 kts 335°
2026-05-04 07:29 27.49748 -81.80407 20041 ft 381 kts 335°
2026-05-04 07:29 27.52310 -81.81269 20041 ft 381 kts 335°
2026-05-04 07:29 27.54844 -81.82123 20039 ft 381 kts 335°
2026-05-04 07:29 27.57429 -81.82994 20041 ft 381 kts 335°
2026-05-04 07:30 27.59973 -81.83852 20046 ft 381 kts 334°
2026-05-04 07:30 27.62524 -81.84712 19639 ft 377 kts 335°
2026-05-04 07:30 27.65124 -81.85317 19141 ft 382 kts 349°
2026-05-04 07:30 27.67770 -81.84888 18644 ft 386 kts 11°
2026-05-04 07:31 27.70293 -81.83776 18162 ft 378 kts 13°
2026-05-04 07:31 27.72739 -81.82726 17683 ft 368 kts 13°
2026-05-04 07:33 27.87195 -81.76632 14243 ft 295 kts 14°
2026-05-04 07:33 27.89173 -81.75798 13755 ft 297 kts 14°
2026-05-04 07:33 27.91131 -81.74981 13270 ft 297 kts 11°
2026-05-04 07:33 27.93149 -81.74490 12785 ft 292 kts
2026-05-04 07:34 27.95179 -81.74065 12295 ft 293 kts
2026-05-04 07:34 27.97210 -81.73640 11804 ft 293 kts
2026-05-04 07:34 27.99208 -81.73220 11357 ft 291 kts
2026-05-04 07:34 28.01210 -81.72800 10959 ft 288 kts
2026-05-04 07:35 28.03166 -81.72305 10597 ft 287 kts 16°
2026-05-04 07:35 28.04876 -81.71098 10296 ft 288 kts 33°
2026-05-04 07:35 28.06488 -81.69727 9725 ft 279 kts 32°
2026-05-04 07:35 28.08028 -81.68423 9205 ft 268 kts 32°
2026-05-04 07:36 28.09499 -81.67177 8698 ft 260 kts 33°
2026-05-04 07:36 28.10943 -81.65955 8189 ft 253 kts 34°
2026-05-04 07:38 28.20350 -81.65876 6321 ft 218 kts 324°
2026-05-04 07:38 28.21626 -81.66838 6086 ft 220 kts 324°
2026-05-04 07:38 28.22919 -81.67808 5839 ft 221 kts 325°
2026-05-04 07:38 28.24216 -81.68779 5596 ft 222 kts 325°
2026-05-04 07:39 28.25518 -81.69754 5353 ft 223 kts 326°
2026-05-04 07:39 28.26817 -81.70727 5113 ft 224 kts 326°
2026-05-04 07:39 28.28149 -81.71723 4865 ft 224 kts 327°
2026-05-04 07:39 28.29459 -81.72705 4620 ft 225 kts 328°
2026-05-04 07:40 28.30786 -81.73699 4371 ft 226 kts 328°
2026-05-04 07:40 28.32104 -81.74675 4121 ft 227 kts 329°
2026-05-04 07:40 28.33561 -81.75300 3869 ft 222 kts 359°
2026-05-04 07:40 28.35035 -81.74904 3683 ft 210 kts 32°
2026-05-04 07:41 28.35951 -81.73685 3432 ft 201 kts 68°
2026-05-04 07:41 28.36059 -81.72130 3186 ft 195 kts 90°
2026-05-04 07:41 28.36231 -81.70643 2924 ft 189 kts 64°
2026-05-04 07:41 28.36887 -81.69385 2714 ft 182 kts 62°
2026-05-04 07:42 28.37421 -81.68153 2498 ft 167 kts 65°
2026-05-04 07:42 28.37891 -81.66982 2231 ft 158 kts 66°
2026-05-04 07:42 28.38331 -81.65852 1994 ft 150 kts 66°
2026-05-04 07:42 28.38738 -81.64792 1963 ft 146 kts 66°
2026-05-04 07:43 28.39141 -81.63735 1961 ft 144 kts 66°
2026-05-04 07:43 28.39538 -81.62695 1965 ft 142 kts 66°
2026-05-04 07:43 28.39931 -81.61660 1963 ft 141 kts 66°
2026-05-04 07:43 28.40322 -81.60632 1957 ft 140 kts 66°
2026-05-04 07:44 28.40709 -81.59615 1955 ft 139 kts 66°
2026-05-04 07:44 28.41091 -81.58610 1962 ft 138 kts 66°
2026-05-04 07:44 28.41473 -81.57601 1967 ft 137 kts 66°
2026-05-04 07:44 28.41855 -81.56598 1967 ft 137 kts 66°
2026-05-04 07:45 28.42236 -81.55592 1973 ft 136 kts 66°
2026-05-04 07:45 28.42604 -81.54583 1972 ft 136 kts 73°
2026-05-04 07:45 28.42467 -81.53534 1969 ft 141 kts 117°
2026-05-04 07:45 28.41704 -81.52782 1978 ft 146 kts 139°
2026-05-04 07:46 28.40848 -81.52126 1972 ft 143 kts 140°
2026-05-04 07:46 28.40020 -81.51519 1958 ft 137 kts 140°
2026-05-04 07:46 28.39220 -81.50945 1961 ft 131 kts 141°
2026-05-04 07:46 28.38463 -81.50407 1957 ft 125 kts 140°
2026-05-04 07:47 28.37685 -81.49850 1925 ft 137 kts 140°
2026-05-04 07:47 28.36888 -81.49290 1736 ft 132 kts 140°
2026-05-04 07:47 28.36113 -81.48744 1560 ft 128 kts 141°
2026-05-04 07:49 28.30774 -81.44983 371 ft 126 kts 144°
2026-05-04 07:49 28.29999 -81.44427 211 ft 132 kts 146°
2026-05-04 07:49 28.29260 -81.43916 84 ft 112 kts 146°
2026-05-04 07:50 28.28715 -81.43529 82 ft 65 kts 148°
2026-05-04 07:50 28.28482 -81.43365 80 ft 28 kts 148°
2026-05-04 07:50 28.28278 -81.43218 78 ft 33 kts 148°
2026-05-04 07:50 28.28271 -81.43128 78 ft 1 kts 24°
2026-05-04 07:51 28.28299 -81.43125 78 ft 0 kts 359°
2026-05-04 07:51 28.28359 -81.43153 79 ft 19 kts 323°
2026-05-04 07:51 28.28456 -81.43221 79 ft 13 kts 328°
2026-05-04 07:51 28.28531 -81.43272 79 ft 12 kts 328°
2026-05-04 07:52 28.28606 -81.43326 79 ft 12 kts 328°
2026-05-04 07:52 28.28683 -81.43379 80 ft 12 kts 328°
2026-05-04 07:52 28.28758 -81.43432 81 ft 12 kts 327°
2026-05-04 07:52 28.28827 -81.43481 82 ft 11 kts 328°
2026-05-04 07:53 28.28897 -81.43529 82 ft 11 kts 328°
2026-05-04 07:54 28.29139 -81.44083 82 ft 12 kts 357°
2026-05-04 07:55 28.29215 -81.44116 83 ft 11 kts 330°
2026-05-04 07:55 28.29247 -81.44109 82 ft 0 kts 75°